Tracking 29606 objects as of 19-Sep-2024
HD Live streaming from Space Station
objects crossing your sky now

FENGYUN 1C DEB

Track FENGYUN 1C DEB now!
10-day predictions


NORAD ID: 31058
Int'l Code: 1999-025BFC
Perigee: 602.9 km
Apogee: 765.0 km
Inclination: 99.6 °
Period: 98.3 minutes
Semi major axis: 7054 km
RCS: 0.0094 m2 (small)
Launch date: May 10, 1999
Source: People's Republic of China (PRC)
Launch site: Taiyaun Space Center, China (TSC)

Note: This is SATELLITE DEBRIS
Your satellite tracking list
Your tracking list is empty




NASA's NSSDC Master Catalog

Two Line Element Set (TLE):
1 31058U 99025BFC 24262.43929367  .00015279  00000-0  25885-2 0  9995
2 31058  99.5792 127.8403 0114894  39.9685 320.9901 14.65085594929283
Source of the keplerian elements: AFSPC